STARLINK-2251 (48594 NORAD) Tracking and Keplerian Element Data

This shows tracking and keplerian element data for the satellite.

Feedback or suggestion? Click here.




ElementValue
Catalog48594
NameSTARLINK-2251
Epoch Orbit1263
Epoch Day215.25002315
Epoch Year2021
RAAN102.4988
Inclination53.0546
Eccentricity0.0001882
Argument of Perigee45.7756
Mean Anonmoly181.6781
Mean Motion15.42192189
Decay Rate-0.00039719
L11 48594U 21041AT 21215.25002315 -.00039719 00000-0 -90688-3 0 9992
L22 48594 53.0546 102.4988 0001882 45.7756 181.6781 15.42192189 12636

Live tracking and technical data element details for STARLINK-2251 (NORAD 48594). STARLINK-2251 can be tracked NOW for your location showing map with azimuth and elevation plus other details from your city location.

Track the satellite on the map from your city or location and see movement details for azimuth, elevation, latitude, longitude, range, height, and movement on the map or in text.







IsCatalogInMostPopularTable: catalog: 48594, numindb: 24
Update: records affected: 1



GetName: 48594 STARLINK-2251

Hit Count: updated at: Tue, 03 Aug 2021 21:32:58 GMT